(267987) = 2001 RM153 = 2004 GU56

Discovered at Kitt Peak on 2004-04-13 by Spacewatch.

Orbit

Orbit type: Main Belt

Note: WebGL enabled browser required.

epoch2022-01-21.0
epoch JD2459600.5
perihelion date2019-11-12.71611
perihelion JD2458800.21611
argument of perihelion (°)307.77767
ascending node (°)336.10482
inclination (°)1.50744
eccentricity0.1976617
perihelion distance (AU)1.9352430
Tisserand w.r.t. Jupiter3.5
ΔV w.r.t. Earth (km/sec)8.7
semimajor axis (AU)2.4120039
mean anomaly (°)210.56244
mean daily motion (°/day)0.26310970
aphelion distance (AU)2.889
period (years)3.75
P-vector [x]0.24004225
P-vector [y]-0.88218194
P-vector [z]-0.40513547
Q-vector [x]0.97070396
Q-vector [y]0.21354458
Q-vector [z]0.11014783
absolute magnitude17.93
phase slope0.15
uncertainty0
referenceMPO 696546
observations used163
oppositions12
arc length (days)8943
first opposition used1997
last opposition used2022
residual rms (arc-secs)0.95
perturbers coarse indicatorM-v
perturbers precise indicator003Ek
first observation date used1997-08-07.0
last observation date used2022-01-31.0
computer namePan
Minimum Orbit Intersection Distances (in AU)
for orbit epoch: 2458200.5, reference: MPO391379
Mercury1.47642
Venus1.20592
Earth0.917373
Mars0.483062
Jupiter2.25648
Saturn6.20341
Uranus15.5505
Neptune27.0661

Observations

168 total observations over interval: 1997 08 07.30964 – 2022 01 31.362409
These data are available for download (format description).

Date (UT) J2000 RA J2000 Dec Magn Location Ref
1997 08 07.30964 20 52 28.81 -18 51 41.3 19.9 V 691 – Steward Observatory, Kitt Peak-Spacewatch MPS 112918
1997 08 07.33158 20 52 27.53 -18 51 44.2 20.1 V 691 – Steward Observatory, Kitt Peak-Spacewatch MPS 112918
1997 08 07.35369 20 52 26.34 -18 51 46.7 19.8 V 691 – Steward Observatory, Kitt Peak-Spacewatch MPS 112918
2000 03 10.25986 11 20 54.69 +03 34 45.6 21.3 V 691 – Steward Observatory, Kitt Peak-Spacewatch MPS 112918
2000 03 10.28083 11 20 53.44 +03 34 52.8 21.3 V 691 – Steward Observatory, Kitt Peak-Spacewatch MPS 112918
2000 03 10.30796 11 20 51.78 +03 35 02.2 20.4 V 691 – Steward Observatory, Kitt Peak-Spacewatch MPS 112918
2001 05 23.33702 23 20 24.95 -04 42 52.7 21.8 R 807 – Cerro Tololo Observatory, La Serena MPS 112918
2001 05 23.41717 23 20 32.81 -04 42 00.0   807 – Cerro Tololo Observatory, La Serena MPS 112918
2001 09 12.34708 00 19 44.90 +03 15 24.5 21.4 V 691 – Steward Observatory, Kitt Peak-Spacewatch MPS 57176
2001 09 12.36850 00 19 43.71 +03 15 18.2 21.4 V 691 – Steward Observatory, Kitt Peak-Spacewatch MPS 57176
2001 09 12.39218 00 19 42.41 +03 15 11.4 21.3 V 691 – Steward Observatory, Kitt Peak-Spacewatch MPS 57176
2001 09 16.39214 00 16 03.43 +02 55 28.3 20.6   704 – Lincoln Laboratory ETS, New Mexico MPS 57176
2001 09 16.40649 00 16 02.66 +02 55 24.6 20.6   704 – Lincoln Laboratory ETS, New Mexico MPS 57176
2001 09 16.42102 00 16 01.80 +02 55 20.2 20.7   704 – Lincoln Laboratory ETS, New Mexico MPS 57176
2004 04 13.32055 13 27 15.74 -11 19 55.6 20.4 V 691 – Steward Observatory, Kitt Peak-Spacewatch MPS 105245
2004 04 13.34935 13 27 13.94 -11 19 47.2 20.4 V 691 – Steward Observatory, Kitt Peak-Spacewatch MPS 105245
2004 04 13.37830 13 27 12.18 -11 19 39.0 20.6 V 691 – Steward Observatory, Kitt Peak-Spacewatch MPS 105245
2004 04 19.22855 13 21 29.72 -10 50 01.4 20.6 V 691 – Steward Observatory, Kitt Peak-Spacewatch MPS 105245
2004 04 19.25556 13 21 28.08 -10 49 53.2 20.5 V 691 – Steward Observatory, Kitt Peak-Spacewatch MPS 105245
2004 04 19.28271 13 21 26.44 -10 49 44.5 20.5 V 691 – Steward Observatory, Kitt Peak-Spacewatch MPS 105245
2004 05 09.18915 13 04 50.07 -09 15 25.5 21.4 V 691 – Steward Observatory, Kitt Peak-Spacewatch MPS 112918
2004 05 09.21646 13 04 48.96 -09 15 19.5 21.6 V 691 – Steward Observatory, Kitt Peak-Spacewatch MPS 112918
2004 05 09.24402 13 04 47.90 -09 15 12.7 21.9 V 691 – Steward Observatory, Kitt Peak-Spacewatch MPS 112918
2004 05 24.21421 12 58 46.58 -08 35 25.0 21.1 V 691 – Steward Observatory, Kitt Peak-Spacewatch MPS 112918
2004 05 24.24194 12 58 46.23 -08 35 22.9 21.6 V 691 – Steward Observatory, Kitt Peak-Spacewatch MPS 112918
2004 05 24.26946 12 58 45.91 -08 35 20.5 21.3 V 691 – Steward Observatory, Kitt Peak-Spacewatch MPS 112918
2005 10 13.37577 02 30 15.19 +16 57 27.6 21.1 V 691 – Steward Observatory, Kitt Peak-Spacewatch MPS 143974
2005 10 13.39313 02 30 14.14 +16 57 24.0 21.2 V 691 – Steward Observatory, Kitt Peak-Spacewatch MPS 143974
2005 10 13.41048 02 30 13.14 +16 57 20.2 20.8 V 691 – Steward Observatory, Kitt Peak-Spacewatch MPS 143974
2005 10 28.20057 02 15 25.89 +15 51 46.4 21.3 V 691 – Steward Observatory, Kitt Peak-Spacewatch MPS 146068
2005 10 28.21796 02 15 24.82 +15 51 41.1 21.0 V 691 – Steward Observatory, Kitt Peak-Spacewatch MPS 146068
2005 10 28.23535 02 15 23.67 +15 51 35.6 20.6 V 691 – Steward Observatory, Kitt Peak-Spacewatch MPS 146068
2005 11 01.18181 02 11 21.46 +15 31 54.4 21.1 V 691 – Steward Observatory, Kitt Peak-Spacewatch MPS 147479
2005 11 01.19913 02 11 20.35 +15 31 48.8 21.2 V 691 – Steward Observatory, Kitt Peak-Spacewatch MPS 147479
2005 11 01.21638 02 11 19.28 +15 31 43.5 21.3 V 691 – Steward Observatory, Kitt Peak-Spacewatch MPS 147479
2005 11 03.28095 02 09 14.83 +15 21 19.8 20.3 V G96 – Mt. Lemmon Survey MPS 147479
2005 11 03.28765 02 09 14.43 +15 21 17.9 20.8 V G96 – Mt. Lemmon Survey MPS 147479
2005 11 03.29449 02 09 14.00 +15 21 16.2 20.7 V G96 – Mt. Lemmon Survey MPS 147479
2005 11 03.30131 02 09 13.60 +15 21 14.1 20.5 V G96 – Mt. Lemmon Survey MPS 147479
2005 11 05.21788 02 07 20.67 +15 11 36.0 20.8 V G96 – Mt. Lemmon Survey MPS 149531
2005 11 05.22668 02 07 20.13 +15 11 33.5 20.4 V G96 – Mt. Lemmon Survey MPS 149531
2005 11 05.23552 02 07 19.59 +15 11 30.8 20.6 V G96 – Mt. Lemmon Survey MPS 149531
2005 11 05.24429 02 07 19.09 +15 11 28.2 21.1 V G96 – Mt. Lemmon Survey MPS 149531
2005 11 10.29719 02 02 35.23 +14 46 34.1 20.9 V G96 – Mt. Lemmon Survey MPS 149531
2005 11 10.30215 02 02 34.94 +14 46 32.3 20.6 V G96 – Mt. Lemmon Survey MPS 149531
2005 11 10.30712 02 02 34.72 +14 46 31.1 20.5 V G96 – Mt. Lemmon Survey MPS 149531
2005 11 10.31215 02 02 34.40 +14 46 29.5 20.7 V G96 – Mt. Lemmon Survey MPS 149531
2011 02 25.22337 09 45 50.76 +13 48 45.9 21.6 V G96 – Mt. Lemmon Survey MPS 371422
2011 02 25.23218 09 45 50.25 +13 48 48.5 21.3 V G96 – Mt. Lemmon Survey MPS 371422
2011 02 25.24081 09 45 49.75 +13 48 50.1 21.2 V G96 – Mt. Lemmon Survey MPS 371422
2011 02 25.24959 09 45 49.21 +13 48 52.7 21.5 V G96 – Mt. Lemmon Survey MPS 371422
2011 03 03.22157 09 40 08.61 +14 14 14.9 21.1 V G96 – Mt. Lemmon Survey MPS 371979
2011 03 03.22679 09 40 08.32 +14 14 16.4 21.3 V G96 – Mt. Lemmon Survey MPS 371979
2011 03 03.23206 09 40 08.00 +14 14 17.2 21.1 V G96 – Mt. Lemmon Survey MPS 371979
2011 03 03.23825 09 40 07.71 +14 14 19.5 21.4 V G96 – Mt. Lemmon Survey MPS 371979
2012 08 10.23373 21 22 53.63 -16 22 06.2 19.6 G G45 – Space Surveillance Telescope, Atom Site MPS 1608685
2012 08 10.24591 21 22 52.91 -16 22 08.1 19.1 G G45 – Space Surveillance Telescope, Atom Site MPS 1608685
2012 08 10.36741 21 22 45.91 -16 22 30.0 19.8 G G45 – Space Surveillance Telescope, Atom Site MPS 1608685
2012 08 10.39973 21 22 44.03 -16 22 36.1 19.2 G G45 – Space Surveillance Telescope, Atom Site MPS 1608685
2012 08 12.58655 21 20 44.70 -16 28 53.0 19.3 V E12 – Siding Spring Survey MPS 429951
2012 08 12.59931 21 20 43.94 -16 28 56.2 19.2 V E12 – Siding Spring Survey MPS 429951
2012 08 12.61223 21 20 43.18 -16 28 58.2 19.2 V E12 – Siding Spring Survey MPS 429951
2012 08 12.62515 21 20 42.43 -16 29 01.8 19.0 V E12 – Siding Spring Survey MPS 429951
2012 08 21.38489 21 13 08.714 -16 51 54.71 19.8 w F51 – Pan-STARRS 1, Haleakala MPS 430952
2012 08 21.39872 21 13 07.999 -16 51 56.60 19.8 w F51 – Pan-STARRS 1, Haleakala MPS 430952
2012 08 21.41288 21 13 07.272 -16 51 58.37 19.9 w F51 – Pan-STARRS 1, Haleakala MPS 430952
2012 08 21.42671 21 13 06.554 -16 52 00.22 19.8 w F51 – Pan-STARRS 1, Haleakala MPS 430952
2015 02 14.32554 11 55 07.69 +00 04 52.9   691 – Steward Observatory, Kitt Peak-Spacewatch MPS 582811
2015 02 14.34624 11 55 07.01 +00 04 57.0   691 – Steward Observatory, Kitt Peak-Spacewatch MPS 582811
2015 02 14.37065 11 55 06.19 +00 04 59.8   691 – Steward Observatory, Kitt Peak-Spacewatch MPS 582811
2015 02 24.45289 11 48 41.196 +00 39 10.32 21.3 w F51 – Pan-STARRS 1, Haleakala MPS 585370
2015 02 24.46716 11 48 40.523 +00 39 13.89 21.4 w F51 – Pan-STARRS 1, Haleakala MPS 585370
2015 02 24.48147 11 48 39.846 +00 39 17.47 21.5 w F51 – Pan-STARRS 1, Haleakala MPS 585370
2015 03 15.29441 11 31 51.61 +02 14 11.4 20.7 r G45 – Space Surveillance Telescope, Atom Site MPS 597410
2015 03 15.29879 11 31 51.29 +02 14 12.9 20.9 r G45 – Space Surveillance Telescope, Atom Site MPS 597410
2015 03 15.30436 11 31 51.02 +02 14 14.3 20.7 r G45 – Space Surveillance Telescope, Atom Site MPS 597410
2015 03 15.30874 11 31 50.79 +02 14 15.9 21.0 r G45 – Space Surveillance Telescope, Atom Site MPS 597410
2015 03 17.23702 11 29 57.86 +02 25 04.7 20.4 V G96 – Mt. Lemmon Survey MPS 591680
2015 03 17.24158 11 29 57.61 +02 25 06.0 20.5 V G96 – Mt. Lemmon Survey MPS 591680
2015 03 17.24619 11 29 57.34 +02 25 07.9 20.3 V G96 – Mt. Lemmon Survey MPS 591680
2015 03 17.25078 11 29 57.08 +02 25 09.0 20.9 V G96 – Mt. Lemmon Survey MPS 591680
2016 08 30.37738 00 41 59.74 +05 29 35.4 20.8 V G96 – Mt. Lemmon Survey MPS 727192
2016 08 30.38483 00 41 59.46 +05 29 34.0 20.8 V G96 – Mt. Lemmon Survey MPS 727192
2016 08 30.39214 00 41 59.21 +05 29 33.1 20.5 V G96 – Mt. Lemmon Survey MPS 727192
2016 08 30.39937 00 41 58.95 +05 29 32.6 20.6 V G96 – Mt. Lemmon Survey MPS 727192
2016 09 22.34897 00 23 38.43 +03 55 24.9 20.2 V G96 – Mt. Lemmon Survey MPS 730582
2016 09 22.35323 00 23 38.17 +03 55 23.6 20.3 V G96 – Mt. Lemmon Survey MPS 730582
2016 09 22.35755 00 23 37.89 +03 55 22.6 20.0 V G96 – Mt. Lemmon Survey MPS 730582
2016 09 22.36196 00 23 37.67 +03 55 21.2 20.1 V G96 – Mt. Lemmon Survey MPS 730582
